Location: Cambridge (historical)
(38.6883°N, 119.0140°W)
Time: 16:49:11
(UTC+00:00)

CZ-4B R/B - Pass Details

Date: 29 October 2020
Orbit: 389 x 462 km, 97.6° (Epoch: 22 November)

Event Time Altitude Azimuth Distance (km) Brightness Sun altitude
Rises 13:36:42 0° 204° (SSW) 2,480 5.0 -9.1°
Reaches altitude 10° 13:39:24 10° 228° (SW) 1,609 3.9 -8.6°
Maximum altitude 13:41:31 15° 266° (W) 1,314 3.1 -8.2°
Drops below altitude 10° 13:43:38 10° 304° (WNW) 1,607 3.6 -7.8°
Enters shadow 13:45:03 - 319° (NW) 2,026 4.2 -7.5°
